Location: Unspecified
(42.3650°N, 71.1030°W)
Time: 17:16:37
(UTC+00:00)

Transit 4A - Pass Details

Date: 30 June 2024
Orbit: 870 x 973 km, 66.8° (Epoch: 17 July)

Event Time Altitude Azimuth Distance (km) Brightness Sun altitude
Rises 00:48:40 0° 196° (SSW) 3,461 10.7 -4.4°
Reaches altitude 10° 00:51:11 10° 193° (SSW) 2,518 9.9 -4.7°
Maximum altitude 00:56:51 58° 115° (ESE) 1,005 7.8 -5.6°
Drops below altitude 10° 01:02:33 10° 38° (NE) 2,525 10.2 -6.4°
Sets 01:05:04 0° 34° (NE) 3,472 11.0 -6.7°
